Regional Weather Roundup
Issued by NWS

Home | Current Version | Previous Version | Graphics & Text | Print | Product List | Glossary On
Versions: 1 2 3 4 5 6 7 8 9 10 11 12 13 14 15 16 17 18 19 20 21 22 23 24 25 26 27 28 29 30 31 32 33 34 35 36 37 38 39 40 41 42 43 44 45 46 47 48 49 50
000
ASUS43 KBIS 272010
RWRND

NORTH DAKOTA REGIONAL WEATHER ROUNDUP
NATIONAL WEATHER SERVICE BISMARCK ND
300 PM CDT WED JUL 27 2016

NOTE: "FAIR" INDICATES FEW OR NO CLOUDS BELOW 12,000 FEET WITH NO
SIGNIFICANT WEATHER AND/OR OBSTRUCTIONS TO VISIBILITY.


NDZ001>003-009>011-017-272100-
NORTHWEST NORTH DAKOTA

CITY           SKY/WX    TMP DP  RH WIND       PRES   REMARKS
WILLISTON      LGT RAIN  68  59  73 N8        30.14S
MINOT          CLOUDY    77  58  51 NE9       30.13F
MINOT AFB      PTSUNNY   73  57  58 E10       30.13S
$$

NDZ018>021-031>035-040>046-272100-
SOUTHWEST NORTH DAKOTA

CITY           SKY/WX    TMP DP  RH WIND       PRES   REMARKS
BISMARCK       CLOUDY    75  62  64 E7        30.11F
DICKINSON      CLOUDY    71  60  68 E6        30.12F
GARRISON         N/A     75  60  59 E7        30.12F
HETTINGER ARPT LGT RAIN  66  61  84 NE7       30.15F
$$

NDZ004>008-012>016-024-026-027-054-272100-
NORTHEAST NORTH DAKOTA

CITY           SKY/WX    TMP DP  RH WIND       PRES   REMARKS
GRAND FORKS    MOSUNNY   77  59  53 N14G24    30.06S
GRND FRKS AFB  MOSUNNY   75  58  55 N13       30.08S
DEVILS LAKE    PTSUNNY   73  58  59 NE9       30.14S
$$

NDZ022-023-025-028>030-036>039-047>053-272100-
SOUTHEAST NORTH DAKOTA

CITY           SKY/WX    TMP DP  RH WIND       PRES   REMARKS
FARGO          SUNNY     79  59  50 N17       30.04S
JAMESTOWN      SUNNY     76  60  57 NE9       30.10S
$$





USA.gov is the U.S. government's official web portal to all federal, state and local government web resources and services.